User: anonymous   Login
Location: Unspecified
(0.0000°N, 0.0000°E)
Time: 09:26:34
(UTC+00:00)
Language:

CRYOSAT 2 - Orbit

View from above orbital plane
View from above orbital plane
View from above satellite
View from above satellite

Ground track
Ground track

The orbit data is extracted from the following two-line orbital elements,

1 36508U 10013A   18019.18018928  .00000070  00000-0  16442-4 0  9991
2 36508  92.0266 254.5142 0006612 344.9218  15.1791 14.52173927412505
Epoch (UTC): 19 January 2018 04:19:28
Eccentricity: 0.0006612
inclination: 92.0266°
perigee height: 714 km
apogee height: 723 km
right ascension of ascending node: 254.5142°
argument of perigee: 344.9218°
revolutions per day: 14.52173927
mean anomaly at epoch: 15.1791°
orbit number at epoch: 41250

The dashed part of the orbit path shows where the satellite is in the earth's shadow,  

DLR